North Bend, OR

1:19 AM PST on February 12, 2016 (GMT -0800)
North Bend Municipal

Weather History for KOTH - September, 2013

Change the Weather History Date:

Sunday, September 29, 2013

  Actual Average Record
Temperature  
Mean Temperature 59 °F 56 °F  
Max Temperature 63 °F 64 °F 82 °F (1947)
Min Temperature 55 °F 48 °F 34 °F (2003)
Degree Days  
Heating Degree Days 6 9  
Month to date heating degree days 119 218  
Since 1 July heating degree days 286 597  
Cooling Degree Days 0 0  
Month to date cooling degree days 1 0  
Year to date cooling degree days 13 1  
Growing Degree Days 8 (Base 50)    
Moisture  
Dew Point 56 °F    
Average Humidity 97    
Maximum Humidity 100    
Minimum Humidity 93    
Precipitation  
Precipitation 1.75 in 0.08 in 1.75 in (2013)
Month to date precipitation 5.94 1.50  
Year to date precipitation 23.87 38.74  
Sea Level Pressure  
Sea Level Pressure 29.73 in    
Wind  
Wind Speed 16 mph (SSW)    
Max Wind Speed 29 mph    
Max Gust Speed 45 mph    
Visibility 8 miles    
Events Thunderstorm    
T = Trace of Precipitation, MM = Missing Value Source: NWS Daily Summary

Daily Weather History Graph

Daily Weather History Graph

Search for Another Location

Airport or City:

Trip Planner

Search our weather history database for the weather conditions in past years. The results will help you decide how hot, cold, wet, or windy it might be!

Date:

Astronomy

Sep. 29, 2013 Rise Set
Actual Time 7:12 AM PDT 7:01 PM PDT
Civil Twilight 6:44 AM PDT 7:29 PM PDT
Nautical Twilight 6:10 AM PDT 8:02 PM PDT
Astronomical Twilight 5:37 AM PDT 8:36 PM PDT
Moon 1:51 AM PDT (9/29) 4:07 PM PDT (9/29)
Length of Visible Light 12h 45m
Length of Day
11h 48m
Waning Crescent, 26% of the Moon is Illuminated
Sep 29
Waning Crescent
Oct 4
New
Oct 11
First Quarter
Oct 18
Full
Oct 26
Last Quarter

Hourly Weather History & Observations

Time (PDT) Temp. Dew Point Humidity Pressure Visibility Wind Dir Wind Speed Gust Speed Precip Events Conditions
12:15 AM 55.4 °F 55.4 °F 100% 29.78 in 10.0 mi SSE 10.4 mph - N/A   Overcast
12:35 AM 55.4 °F 53.6 °F 94% 29.78 in 10.0 mi SSE 9.2 mph - N/A   Overcast
12:55 AM 55.4 °F 53.6 °F 94% 29.78 in 10.0 mi SSE 11.5 mph 16.1 mph N/A   Overcast
1:15 AM 55.4 °F 55.4 °F 100% 29.78 in 10.0 mi South 11.5 mph - N/A   Overcast
1:35 AM 55.4 °F 55.4 °F 100% 29.77 in 10.0 mi South 9.2 mph - N/A   Mostly Cloudy
1:55 AM 55.4 °F 53.6 °F 94% 29.79 in 10.0 mi South 10.4 mph - N/A   Mostly Cloudy
2:15 AM 55.4 °F 53.6 °F 94% 29.80 in 10.0 mi South 9.2 mph - N/A   Overcast
2:35 AM 57.2 °F 55.4 °F 94% 29.80 in 10.0 mi South 9.2 mph - N/A   Overcast
2:55 AM 57.2 °F 55.4 °F 94% 29.80 in 10.0 mi South 9.2 mph - N/A   Overcast
3:15 AM 57.2 °F 55.4 °F 94% 29.79 in 10.0 mi South 12.7 mph 18.4 mph N/A   Overcast
3:35 AM 57.2 °F 55.4 °F 94% 29.78 in 10.0 mi South 9.2 mph - N/A   Overcast
3:55 AM 57.2 °F 57.2 °F 100% 29.78 in 10.0 mi South 10.4 mph - N/A   Overcast
4:15 AM 59.0 °F 57.2 °F 94% 29.77 in 10.0 mi South 10.4 mph 19.6 mph N/A   Overcast
4:35 AM 59.0 °F 57.2 °F 94% 29.78 in 10.0 mi SSW 9.2 mph 16.1 mph N/A   Overcast
4:55 AM 59.0 °F 57.2 °F 94% 29.77 in 10.0 mi SSW 13.8 mph 20.7 mph N/A   Overcast
5:15 AM 59.0 °F 57.2 °F 94% 29.77 in 10.0 mi SSW 12.7 mph 21.9 mph N/A   Overcast
5:35 AM 59.0 °F 57.2 °F 94% 29.78 in 9.0 mi SW 11.5 mph 24.2 mph 0.05 in   Overcast
5:55 AM 57.2 °F 55.4 °F 94% 29.79 in 9.0 mi SSW 15.0 mph 25.3 mph 0.07 in   Mostly Cloudy
6:15 AM 57.2 °F 55.4 °F 94% 29.78 in 10.0 mi SSW 10.4 mph 18.4 mph 0.02 in   Overcast
6:35 AM 57.2 °F 55.4 °F 94% 29.77 in 10.0 mi South 9.2 mph - 0.02 in   Overcast
6:55 AM 57.2 °F 55.4 °F 94% 29.76 in 10.0 mi SW 8.1 mph 17.3 mph 0.02 in Thunderstorm Overcast
7:15 AM 59.0 °F 57.2 °F 94% 29.77 in 8.0 mi SW 12.7 mph 19.6 mph 0.03 in   Overcast
7:35 AM 57.2 °F 57.2 °F 100% 29.77 in 7.0 mi SW 18.4 mph 24.2 mph 0.08 in   Mostly Cloudy
7:55 AM 57.2 °F 57.2 °F 100% 29.78 in 7.0 mi WSW 19.6 mph 28.8 mph 0.09 in   Mostly Cloudy
8:15 AM 57.2 °F 53.6 °F 88% 29.79 in 10.0 mi SSW 12.7 mph 25.3 mph N/A   Overcast
8:35 AM 55.4 °F 55.4 °F 100% 29.79 in 10.0 mi South 12.7 mph - 0.01 in   Overcast
8:55 AM 55.4 °F 55.4 °F 100% 29.79 in 10.0 mi South 16.1 mph 21.9 mph 0.02 in   Overcast
9:15 AM 55.4 °F 55.4 °F 100% 29.79 in 10.0 mi South 11.5 mph 17.3 mph N/A   Overcast
9:35 AM 55.4 °F 55.4 °F 100% 29.79 in 10.0 mi South 11.5 mph 19.6 mph N/A   Overcast
9:55 AM 57.2 °F 55.4 °F 94% 29.79 in 10.0 mi South 10.4 mph 18.4 mph N/A   Overcast
10:15 AM 55.4 °F 53.6 °F 94% 29.78 in 6.0 mi South 10.4 mph 20.7 mph 0.02 in   Mostly Cloudy
10:35 AM 57.2 °F 55.4 °F 94% 29.78 in 10.0 mi South 13.8 mph 19.6 mph 0.02 in   Overcast
10:55 AM 57.2 °F 55.4 °F 94% 29.76 in 10.0 mi South 15.0 mph 19.6 mph 0.03 in   Overcast
11:15 AM 57.2 °F 57.2 °F 100% 29.76 in 10.0 mi South 12.7 mph 25.3 mph N/A   Overcast
11:35 AM 57.2 °F 57.2 °F 100% 29.76 in 9.0 mi South 13.8 mph 20.7 mph N/A   Overcast
11:55 AM 57.2 °F 57.2 °F 100% 29.75 in 9.0 mi South 16.1 mph 24.2 mph 0.03 in   Mostly Cloudy
12:15 PM 57.2 °F 57.2 °F 100% 29.75 in 4.0 mi SSW 18.4 mph 25.3 mph 0.05 in   Overcast
12:35 PM 57.2 °F 57.2 °F 100% 29.75 in 5.0 mi SW 12.7 mph 35.7 mph 0.09 in   Overcast
12:55 PM 57.2 °F 57.2 °F 100% 29.74 in 5.0 mi SSW 16.1 mph 23.0 mph 0.12 in   Overcast
1:15 PM 57.2 °F 57.2 °F 100% 29.74 in 4.0 mi SSW 20.7 mph 38.0 mph 0.05 in   Overcast
1:35 PM 57.2 °F 57.2 °F 100% 29.72 in 4.0 mi SSW 19.6 mph 28.8 mph 0.10 in   Overcast
1:55 PM 57.2 °F 55.4 °F 94% 29.72 in 6.0 mi South 19.6 mph 26.5 mph 0.15 in   Overcast
2:15 PM 57.2 °F 57.2 °F 100% 29.70 in 7.0 mi South 16.1 mph 26.5 mph 0.06 in   Overcast
2:35 PM 57.2 °F 57.2 °F 100% 29.70 in 8.0 mi South 12.7 mph 23.0 mph 0.11 in   Overcast
2:55 PM 59.0 °F 59.0 °F 100% 29.68 in 7.0 mi SSW 20.7 mph 29.9 mph 0.14 in   Overcast
3:15 PM 59.0 °F 57.2 °F 94% 29.68 in 3.0 mi SSW 23.0 mph 34.5 mph 0.05 in   Overcast
3:35 PM 60.8 °F 59.0 °F 94% 29.66 in 5.0 mi SSW 24.2 mph 38.0 mph 0.08 in   Overcast
3:55 PM 60.8 °F - N/A% 29.66 in 5.0 mi SSW 26.5 mph 41.4 mph 0.09 in   Overcast
4:15 PM 60.8 °F - N/A% 29.64 in 5.0 mi SSW 25.3 mph 48.3 mph 0.02 in   Overcast
4:35 PM 60.8 °F - N/A% 29.64 in 5.0 mi SSW 25.3 mph 36.8 mph 0.06 in   Overcast
4:55 PM 60.8 °F - N/A% 29.65 in 3.0 mi SSW 19.6 mph 44.9 mph 0.14 in   Overcast
5:15 PM 60.8 °F - N/A% 29.64 in 3.0 mi SSW 20.7 mph 34.5 mph 0.07 in   Overcast
5:35 PM 60.8 °F - N/A% 29.64 in 3.0 mi SW 21.9 mph 39.1 mph 0.18 in   Overcast
5:55 PM 60.8 °F - N/A% 29.62 in 4.0 mi SW 19.6 mph 35.7 mph 0.29 in   Overcast
6:15 PM 60.8 °F - N/A% 29.61 in 5.0 mi SSW 24.2 mph 40.3 mph 0.09 in   Overcast
6:35 PM 62.6 °F - N/A% 29.61 in 6.0 mi SSW 23.0 mph 40.3 mph 0.16 in   Overcast
6:55 PM 60.8 °F - N/A% 29.61 in 5.0 mi SSW 23.0 mph 34.5 mph 0.21 in   Overcast
7:15 PM 60.8 °F - N/A% 29.59 in 6.0 mi SSW 23.0 mph 34.5 mph 0.04 in   Overcast
7:35 PM 62.6 °F - N/A% 29.60 in 9.0 mi SSW 19.6 mph 35.7 mph 0.07 in   Overcast
7:55 PM 62.6 °F - N/A% 29.61 in 8.0 mi SW 20.7 mph 39.1 mph 0.10 in   Overcast
8:15 PM 62.6 °F - N/A% 29.59 in 3.0 mi SSW 32.2 mph 43.7 mph 0.03 in   Overcast
8:35 PM 62.6 °F - N/A% 29.61 in 3.0 mi SW 24.2 mph 47.2 mph 0.08 in   Overcast
8:55 PM 62.6 °F - N/A% 29.61 in 4.0 mi SSW 28.8 mph 39.1 mph 0.11 in   Overcast
9:15 PM 59.0 °F - N/A% 29.67 in 4.0 mi WSW 21.9 mph 36.8 mph 0.07 in   Overcast
9:35 PM 57.2 °F 57.2 °F 100% 29.69 in 3.0 mi West 26.5 mph 34.5 mph 0.13 in   Overcast
9:55 PM 57.2 °F 57.2 °F 100% 29.69 in 7.0 mi WSW 15.0 mph - 0.14 in   Overcast
10:15 PM 57.2 °F 55.4 °F 94% 29.71 in 8.0 mi WSW 10.4 mph 18.4 mph N/A   Overcast
10:35 PM 57.2 °F 55.4 °F 94% 29.72 in 6.0 mi SW 13.8 mph 19.6 mph N/A   Overcast
10:55 PM 57.2 °F 55.4 °F 94% 29.74 in 7.0 mi SW 10.4 mph - N/A   Overcast
11:15 PM 57.2 °F 57.2 °F 100% 29.75 in 6.0 mi West 12.7 mph 16.1 mph N/A   Overcast
11:35 PM 57.2 °F - N/A% 29.77 in 8.0 mi West 13.8 mph - N/A   Overcast
11:55 PM 57.2 °F - N/A% 29.77 in 9.0 mi West 11.5 mph - N/A   Overcast